Regional Weather Roundup
Issued by NWS

Home | Current Version | Previous Version | Text Only | Print | Product List | Glossary Off
Versions: 1 2 3 4 5 6 7 8 9 10 11 12 13 14 15 16 17 18 19 20 21 22 23 24 25 26 27 28 29 30 31 32 33 34 35 36 37 38 39 40 41 42 43 44 45 46 47 48 49 50

000
ASUS43 KIND 251559
RWRIN

WEATHER ROUNDUP FOR INDIANA
NATIONAL WEATHER SERVICE INDIANAPOLIS IN
1200 PM EDT WED APR 25 2018

NOTE: "FAIR" INDICATES FEW OR NO CLOUDS BELOW 12,000 FEET WITH NO
SIGNIFICANT WEATHER AND/OR OBSTRUCTIONS TO VISIBILITY.

* - STATION DOES NOT REPORT WEATHER SUCH AS PRECIPITATION OR FOG.

+ - STATION NOT QUALITY CONTROLLED BY THE NATIONAL WEATHER SERVICE.
    USE DATA WITH CAUTION...ESPECIALLY DEWPOINT AND RELATIVE
    HUMIDITY OBSERVATIONS.

INZ001>003-010>013-019-020-251700-
NORTHWEST INDIANA

CITY           SKY/WX    TMP DP  RH WIND       PRES   REMARKS
GARY /AIRPORT/ MOSUNNY   45  34  65 N20       30.13S
KNOX *+        FAIR      54  37  54 N16       30.05S
MONTICELLO +   FAIR      56  38  50 NW12G17   30.03S
RENSSELAER +   FAIR      55  28  35 N17G25    30.06R

$$

LMZ046-743>745-251700-
SOUTHERN LAKE MICHIGAN

STATION/POSITION TIME  TEMP    WIND        PRES    WAVE
                       AIR SEA DIR/SP/G            HT
                 (UTC) (F)     (DEG/KT/KT) (MB)    (FT)
MICHIGAN CITY    1530   40     340/ 21/ 22   N/A

$$

INZ004-005-014>016-021>024-251700-
NORTH CENTRAL INDIANA

CITY           SKY/WX    TMP DP  RH WIND       PRES   REMARKS
ELKHART        FAIR      57  37  47 N10       30.02F
GOSHEN         FAIR      57  39  51 N10       30.01F
PERU/GRISSOM   PTSUNNY   54  54  98 N9        30.01S
ROCHESTER +    FAIR      61  45  55 N9        30.02S
SOUTH BEND     FAIR      54  36  50 NW16      30.04F
WARSAW +       FAIR      55  43  62 N12G17    30.01F

$$

INZ006>009-017-018-025>027-251700-
NORTHEAST INDIANA

CITY           SKY/WX    TMP DP  RH WIND       PRES   REMARKS
ANGOLA *+      FAIR      54  39  58 N9G17     29.98F
FORT WAYNE     PTSUNNY   58  49  72 N14       29.98F
KENDALLVILLE + FAIR      54  38  55 N10       29.99F

$$

INZ028-029-035-036-043>045-051>053-251700-
WEST CENTRAL INDIANA

CITY           SKY/WX    TMP DP  RH WIND       PRES   REMARKS
GREENCASTLE +  CLOUDY    50  46  87 N8        30.05R FOG
LAFAYETTE      FAIR      57  44  62 N14G20    30.03F
TERRE HAUTE    CLOUDY    55  50  83 N8        30.05R

$$

INZ030>032-037>040-046>048-054>057-064-065-251700-
CENTRAL INDIANA

CITY           SKY/WX    TMP DP  RH WIND       PRES   REMARKS
ANDERSON         N/A     54  50  87 N12G17    30.00S
COLUMBUS       PTSUNNY   57  48  72 N14       30.00F
GREENWOOD *+     N/A     59  50  72 N13       30.00S
INDIANAPOLIS   PTSUNNY   57  50  77 NW14      30.01S
-EAGLE CREEK   CLOUDY    54  48  80 N10       30.01S
KOKOMO +       CLOUDY    54  48  80 N12       30.02S
MT COMFORT *+  PTSUNNY   59  54  82 N13G18    30.00F
SHELBYVILLE    CLOUDY    59  50  72 N14       29.98F
ZIONSVILLE +   CLOUDY    48  48  99 NW10      30.03S FOG

$$

INZ033-034-041-042-049-050-058-059-251700-
EAST CENTRAL INDIANA

CITY           SKY/WX    TMP DP  RH WIND       PRES   REMARKS
MUNCIE         CLOUDY    60  50  69 N14       29.98F
RICHMOND +     CLOUDY    54  52  94 N14G22    29.97F

$$

INZ060-061-067>069-081>083-085>088-251700-
SOUTHWEST INDIANA

CITY           SKY/WX    TMP DP  RH WIND       PRES   REMARKS
EVANSVILLE     PTSUNNY   64  55  72 NE7       30.03S
HUNTINGBURG +  PTSUNNY   62  53  72 N8        30.03R

$$

INZ062-063-066-070>080-084-089>092-251700-
SOUTH CENTRAL AND SOUTHEAST INDIANA

CITY           SKY/WX    TMP DP  RH WIND       PRES   REMARKS
BLOOMINGTON    PTSUNNY   58  51  78 N6        30.02R
SEYMOUR +      CLOUDY    61  50  67 N8        30.00S

$$





USA.gov is the U.S. government's official web portal to all federal, state and local government web resources and services.